W2SRH Weather Reports


time (UTC)temp
C
wind
direction
speed
KPH
gust
KPH
rain 1hr
cm
rain 24hr
cm
rain mn
cm
humidity
%
barometer
mb
20260506235904 19 223 1.6 8.0 0.00 0.15 0.15 72 999.1
20260506234905 20 221 1.6 4.8 0.00 0.15 0.15 72 999.1
20260506233904 20 231 1.6 12.9 0.00 0.15 0.15 72 999.1
20260506232904 20 219 1.6 9.7 0.00 0.15 0.15 71 999.2
20260506231905 20 80 0.0 4.8 0.00 0.15 0.15 71 999.2
20260506230904 20 222 3.2 8.0 0.00 0.15 0.15 69 999.0
20260506225904 20 230 1.6 9.7 0.00 0.15 0.15 69 998.9
20260506224907 20 175 0.0 1.6 0.00 0.15 0.15 70 998.9
20260506223905 20 244 0.0 6.4 0.00 0.15 0.15 69 998.8
20260506222905 20 269 1.6 8.0 0.00 0.15 0.15 70 999.0
20260506221904 20 205 1.6 6.4 0.00 0.15 0.15 69 999.0
20260506220907 21 253 3.2 14.5 0.00 0.15 0.15 66 998.8
20260506215906 20 263 4.8 17.7 0.00 0.15 0.15 69 998.8
20260506214905 20 250 4.8 16.1 0.00 0.15 0.15 71 998.9
20260506213904 20 246 3.2 17.7 0.00 0.15 0.15 71 998.8
20260506212904 20 256 9.7 20.9 0.00 0.15 0.15 69 998.7
20260506211904 20 266 4.8 14.5 0.00 0.15 0.15 70 998.8
20260506210904 20 257 4.8 16.1 0.00 0.15 0.15 70 998.7
20260506205904 20 278 8.0 20.9 0.00 0.15 0.15 70 998.4
20260506203904 19 258 6.4 16.1 0.00 0.15 0.15 71 998.3
20260506202904 19 258 4.8 19.3 0.00 0.15 0.15 72 998.4
20260506201904 19 235 6.4 20.9 0.00 0.15 0.15 72 998.5
20260506200904 18 231 4.8 19.3 0.00 0.15 0.15 73 998.7
20260506195904 18 280 6.4 24.1 0.00 0.15 0.15 74 998.7
20260506194905 18 242 3.2 8.0 0.00 0.15 0.15 75 998.8
20260506193905 18 255 6.4 16.1 0.00 0.15 0.15 75 998.9
20260506192908 18 249 3.2 17.7 0.00 0.15 0.15 75 999.1
20260506191905 18 267 4.8 20.9 0.00 0.15 0.15 75 999.0
20260506190904 18 242 4.8 14.5 0.00 0.15 0.15 75 999.1
20260506185905 18 255 6.4 29.0 0.00 0.15 0.15 75 999.1
20260506184905 17 278 3.2 19.3 0.00 0.15 0.15 75 999.2
20260506183905 17 239 1.6 12.9 0.00 0.15 0.15 75 999.4
20260506182904 18 232 6.4 32.2 0.00 0.15 0.15 74 999.4
20260506181904 18 253 4.8 16.1 0.00 0.15 0.15 75 999.4
20260506180906 17 249 3.2 16.1 0.00 0.15 0.15 75 999.4
20260506175904 17 210 1.6 12.9 0.00 0.15 0.15 77 999.5
20260506174904 17 235 4.8 19.3 0.00 0.15 0.15 77 999.7
20260506173904 17 230 4.8 17.7 0.00 0.15 0.15 76 999.8
20260506172903 18 177 3.2 14.5 0.00 0.15 0.15 77 999.7
20260506171904 18 196 3.2 12.9 0.03 0.15 0.15 79 999.6
20260506170903 18 186 1.6 6.4 0.08 0.15 0.15 80 999.8
20260506165904 18 174 1.6 6.4 0.08 0.15 0.15 81 999.7
20260506164905 17 186 0.0 6.4 0.13 0.15 0.15 81 999.8
20260506163905 17 185 1.6 6.4 0.10 0.13 0.13 83 1000.0
20260506162905 17 234 0.0 4.8 0.13 0.13 0.13 82 1000.7
20260506161905 17 240 1.6 6.4 0.10 0.10 0.10 79 1001.0
20260506160906 17 246 3.2 14.5 0.08 0.08 0.08 76 1001.2
20260506155905 17 159 0.0 12.9 0.05 0.05 0.05 75 1001.1
20260506154905 17 238 0.0 6.4 0.03 0.03 0.03 74 1001.2
20260506153905 18 271 3.2 8.0 0.00 0.00 0.00 72 1001.1
20260506152904 18 234 4.8 16.1 0.00 0.00 0.00 68 1001.1
20260506151905 20 217 3.2 17.7 0.00 0.00 0.00 63 1000.9
20260506150905 20 243 3.2 9.7 0.00 0.00 0.00 62 1000.9
20260506145905 20 234 3.2 9.7 0.00 0.00 0.00 62 1001.1
20260506144904 20 176 3.2 16.1 0.00 0.00 0.00 59 1001.2
20260506143904 20 184 1.6 9.7 0.00 0.00 0.00 59 1001.2
20260506142904 20 257 6.4 16.1 0.00 0.00 0.00 58 1001.1
20260506141904 20 255 1.6 16.1 0.00 0.00 0.00 58 1001.1
20260506140904 20 253 11.3 22.5 0.00 0.00 0.00 58 1001.0
20260506135905 20 205 1.6 14.5 0.00 0.00 0.00 60 1001.0
20260506134904 19 235 3.2 22.5 0.00 0.00 0.00 61 1001.0
20260506133904 19 234 4.8 14.5 0.00 0.00 0.00 62 1001.0
20260506132904 19 246 3.2 16.1 0.00 0.00 0.00 62 1001.3
20260506131905 19 208 4.8 17.7 0.00 0.00 0.00 62 1001.3
20260506130905 19 244 4.8 14.5 0.00 0.00 0.00 62 1001.3
20260506125905 19 268 1.6 12.9 0.00 0.00 0.00 63 1001.2
20260506124905 19 182 3.2 16.1 0.00 0.00 0.00 63 1001.2
20260506123904 19 202 4.8 12.9 0.00 0.00 0.00 63 1001.2
20260506122906 19 156 1.6 24.1 0.00 0.00 0.00 64 1001.0
20260506121905 18 207 3.2 22.5 0.00 0.00 0.00 65 1001.2
20260506120904 18 264 3.2 17.7 0.00 0.00 0.00 67 1001.1
20260506115904 18 183 4.8 12.9 0.00 0.00 0.00 67 1001.2
20260506114904 18 192 1.6 6.4 0.00 0.00 0.00 67 1001.2
20260506113904 18 236 1.6 9.7 0.00 0.00 0.00 68 1001.3
20260506113012 17 197 3.2 6.4 0.00 0.00 0.00 70 1001.4
20260506112904 18 256 3.2 9.7 0.00 0.00 0.00 68 1001.3
20260506111904 17 166 1.6 8.0 0.00 0.00 0.00 69 1001.4
20260506110904 17 230 3.2 16.1 0.00 0.00 0.00 69 1001.3
20260506105904 17 197 3.2 6.4 0.00 0.00 0.00 70 1001.4
20260506104904 18 151 1.6 8.0 0.00 0.00 0.00 69 1001.2
20260506103904 17 231 1.6 8.0 0.00 0.00 0.00 71 1001.1
20260506102904 17 212 1.6 6.4 0.00 0.00 0.00 73 1001.2
20260506101906 17 201 1.6 6.4 0.00 0.00 0.00 73 1001.1
20260506100904 17 173 1.6 6.4 0.00 0.00 0.00 73 1001.2
20260506095905 17 173 1.6 8.0 0.00 0.00 0.00 73 1001.1
20260506095420 17 186 1.6 6.4 0.00 0.00 0.00 72 1001.0
20260506094906 17 158 1.6 9.7 0.00 0.00 0.00 73 1001.1
20260506093904 17 156 1.6 9.7 0.00 0.00 0.00 72 1001.0
20260506092905 17 186 1.6 6.4 0.00 0.00 0.00 72 1001.0
20260506092221 17 206 3.2 9.7 0.00 0.00 0.00 71 1001.0
20260506091907 17 168 1.6 9.7 0.00 0.00 0.00 72 1001.0
20260506090905 17 177 1.6 8.0 0.00 0.00 0.00 71 1001.2
20260506085905 17 206 3.2 9.7 0.00 0.00 0.00 71 1001.0
20260506084905 17 215 1.6 9.7 0.00 0.00 0.00 71 1001.1
20260506083906 17 175 1.6 8.0 0.00 0.00 0.00 71 1001.1
20260506082904 17 134 1.6 8.0 0.00 0.00 0.00 71 1001.2
20260506081904 17 178 1.6 14.5 0.00 0.00 0.00 71 1001.2
20260506080905 17 202 1.6 9.7 0.00 0.00 0.00 71 1001.4
20260506072904 18 182 1.6 9.7 0.00 0.00 0.00 71 1001.4
20260506071904 18 156 1.6 6.4 0.00 0.00 0.00 70 1001.4
20260506071415 18 202 1.6 14.5 0.00 0.00 0.00 68 1001.5
20260506070904 18 139 0.0 9.7 0.00 0.00 0.00 69 1001.4
20260506061907 18 170 1.6 4.8 0.00 0.00 0.00 67 1001.6
20260506061005 19 283 1.6 8.0 0.00 0.00 0.00 64 1001.8
20260506060905 18 170 1.6 4.8 0.00 0.00 0.00 66 1001.6
20260506050904 19 199 1.6 6.4 0.00 0.00 0.00 63 1002.1
20260506044904 19 224 1.6 4.8 0.00 0.00 0.00 62 1002.1
20260506043904 19 195 1.6 6.4 0.00 0.00 0.00 61 1002.2
20260506042904 20 171 1.6 12.9 0.00 0.00 0.00 61 1002.2
20260506041904 20 171 1.6 4.8 0.00 0.00 0.00 60 1002.1
20260506040904 20 181 1.6 6.4 0.00 0.00 0.00 59 1002.1
20260506035904 20 208 1.6 6.4 0.00 0.00 0.00 58 1002.0
20260506034904 20 222 1.6 8.0 0.00 0.00 0.00 58 1001.9
20260506033905 20 194 3.2 16.1 0.00 0.00 0.00 57 1001.9
20260506032905 20 182 1.6 8.0 0.00 0.00 0.00 56 1002.0
20260506031905 20 191 1.6 8.0 0.00 0.00 0.00 56 1002.1
20260506030906 20 189 1.6 9.7 0.00 0.00 0.00 55 1002.0
20260506025904 20 191 1.6 8.0 0.00 0.00 0.00 54 1002.1
20260506024905 20 233 1.6 8.0 0.00 0.00 0.00 54 1002.0
20260506023905 21 246 3.2 19.3 0.00 0.00 0.00 53 1002.1
20260506022904 21 232 3.2 8.0 0.00 0.00 0.00 53 1002.1
20260506021905 21 160 0.0 4.8 0.00 0.00 0.00 53 1002.1
20260506020904 21 168 1.6 14.5 0.00 0.00 0.00 53 1002.0
20260506015904 21 171 1.6 8.0 0.00 0.00 0.00 53 1002.1
20260506014904 21 174 1.6 8.0 0.00 0.00 0.00 52 1001.9
20260506013904 21 254 3.2 8.0 0.00 0.00 0.00 52 1001.8
20260506012904 21 203 1.6 8.0 0.00 0.00 0.00 51 1001.9
20260506011906 21 214 1.6 16.1 0.00 0.00 0.00 49 1001.7
20260506010904 22 189 3.2 12.9 0.00 0.00 0.00 46 1001.6
20260506005904 22 208 1.6 8.0 0.00 0.00 0.00 44 1001.5
20260506004904 23 176 0.0 3.2 0.00 0.00 0.00 42 1001.4
20260506003909 23 207 1.6 8.0 0.00 0.00 0.00 41 1001.2
20260506002905 23 199 1.6 8.0 0.00 0.00 0.00 39 1001.1
20260506001906 24 180 1.6 9.7 0.00 0.00 0.00 37 1001.0
20260506000905 24 213 3.2 9.7 0.00 0.00 0.00 37 1000.9